User: anonymous   Login
Location: Pine Mountain Observatory
(43.7910°N, 120.9377°W)
Time: 19:15:41
(UTC-07:00)
Language:

Meteor 2-19 Rocket - Orbit

View from above orbital plane
View from above orbital plane
View from above satellite
View from above satellite

Ground track
Ground track

The orbit data is extracted from the following two-line orbital elements,

1 20671U 90057B   14295.84458507  .00000066  00000-0  45045-4 0  1197
2 20671 082.5486 061.8158 0015996 153.8779 010.7486 13.84578193229064
Epoch (UTC): 22 October 2014 20:16:12
Eccentricity: 0.0015996
inclination: 82.5486°
perigee height: 936 km
apogee height: 959 km
right ascension of ascending node: 61.8158°
argument of perigee: 153.8779°
revolutions per day: 13.84578193
mean anomaly at epoch: 10.7486°
orbit number at epoch: 22906

The dashed part of the orbit path shows where the satellite is in the earth's shadow,  

DLR